TimeHST,TemperatureF,Dew PointF,Humidity,Sea Level PressureIn,VisibilityMPH,Wind Direction,Wind SpeedMPH,Gust SpeedMPH,PrecipitationIn,Events,Conditions,WindDirDegrees,DateUTC
12:56 AM,65.8,59.0,79,30.12,-9999.0,ENE,15.0,-,N/A,,Clear,60,2013-02-26 10:56:00
1:56 AM,64.9,57.9,78,30.09,-9999.0,ENE,12.7,19.6,N/A,,Clear,60,2013-02-26 11:56:00
2:56 AM,64.9,59.0,81,30.09,-9999.0,NNE,10.4,-,N/A,,Clear,20,2013-02-26 12:56:00
3:56 AM,64.9,57.9,78,30.07,-9999.0,NE,15.0,27.6,N/A,,Clear,50,2013-02-26 13:56:00
4:56 AM,64.4,57.2,77,30.12,-9999.0,ESE,12.7,-,N/A,,Clear,110,2013-02-26 14:56:00
5:56 AM,64.9,56.8,75,30.06,-9999.0,ENE,21.9,27.6,N/A,,Clear,60,2013-02-26 15:56:00
6:56 AM,64.9,56.8,75,30.11,-9999.0,ENE,9.2,-,N/A,,Mostly Cloudy,60,2013-02-26 16:56:00
7:56 AM,68.9,57.9,68,30.12,-9999.0,East,12.7,-,N/A,,Mostly Cloudy,80,2013-02-26 17:56:00
8:09 AM,69.8,57.2,64,30.17,-9999.0,East,13.8,-,N/A,,Mostly Cloudy,90,2013-02-26 18:09:00
8:23 AM,69.8,57.2,64,30.17,-9999.0,ENE,15.0,26.5,N/A,,Clear,60,2013-02-26 18:23:00
8:56 AM,70.9,59.0,66,30.13,-9999.0,ENE,16.1,-,N/A,,Clear,60,2013-02-26 18:56:00
9:06 AM,71.6,59.0,64,30.18,-9999.0,ENE,12.7,-,N/A,,Mostly Cloudy,60,2013-02-26 19:06:00
9:16 AM,71.6,57.2,60,30.18,-9999.0,ENE,9.2,-,N/A,,Clear,70,2013-02-26 19:16:00
9:56 AM,72.9,59.0,62,30.13,-9999.0,NE,19.6,24.2,N/A,,Clear,40,2013-02-26 19:56:00
10:56 AM,75.2,57.2,53,30.17,-9999.0,NE,13.8,-,N/A,,Clear,40,2013-02-26 20:56:00
11:56 AM,75.9,57.9,54,30.11,-9999.0,NE,19.6,24.2,N/A,,Mostly Cloudy,50,2013-02-26 21:56:00
12:56 PM,77.9,57.9,50,30.07,-9999.0,NE,23.0,28.8,N/A,,Mostly Cloudy,40,2013-02-26 22:56:00
1:56 PM,74.8,56.8,53,30.08,-9999.0,SW,4.6,16.1,N/A,,Mostly Cloudy,220,2013-02-26 23:56:00
2:56 PM,73.9,59.0,59,30.06,-9999.0,West,6.9,-,N/A,,Mostly Cloudy,270,2013-02-27 00:56:00
3:56 PM,72.9,59.0,62,30.06,-9999.0,NE,25.3,28.8,N/A,,Mostly Cloudy,40,2013-02-27 01:56:00
4:56 PM,72.0,59.0,64,30.07,-9999.0,NE,19.6,28.8,N/A,,Mostly Cloudy,50,2013-02-27 02:56:00
5:56 PM,70.9,59.0,66,30.09,-9999.0,NNE,17.3,-,N/A,,Clear,30,2013-02-27 03:56:00
6:56 PM,66.9,59.0,76,30.11,-9999.0,NE,13.8,-,N/A,,Clear,40,2013-02-27 04:56:00
7:56 PM,65.8,59.9,81,30.12,-9999.0,NE,18.4,23.0,N/A,,Clear,40,2013-02-27 05:56:00
8:56 PM,65.8,59.0,79,30.13,-9999.0,East,11.5,19.6,N/A,,Mostly Cloudy,90,2013-02-27 06:56:00
9:43 PM,64.4,60.8,88,30.19,-9999.0,NE,13.8,23.0,0.00,,Clear,40,2013-02-27 07:43:00
9:56 PM,64.9,59.9,84,30.14,-9999.0,NE,20.7,-,0.00,,Clear,50,2013-02-27 07:56:00
10:56 PM,64.4,60.8,88,30.20,-9999.0,NE,17.3,24.2,N/A,Rain,Light Rain,50,2013-02-27 08:56:00
11:15 PM,64.4,60.8,88,30.19,-9999.0,NE,19.6,25.3,0.00,,Mostly Cloudy,50,2013-02-27 09:15:00
11:28 PM,64.4,60.8,88,30.19,-9999.0,NE,21.9,-,0.00,,Mostly Cloudy,50,2013-02-27 09:28:00
11:56 PM,64.9,59.0,81,30.14,-9999.0,NE,19.6,-,0.00,,Clear,50,2013-02-27 09:56:00